User: anonymous   Login
Location: Newark
(7.1028°S, 35.3258°W)
Time: 17:11:27
(UTC+00:00)
Language:

Explorer 11/Cluster Stage 4 - Orbit

View from above orbital plane
View from above orbital plane
View from above satellite
View from above satellite

Ground track
Ground track

The orbit data is extracted from the following two-line orbital elements,

1   107U 61013A   20056.44991687 +.00000297 +00000-0 +19688-4 0  9994
2   107 028.7875 099.6380 0547118 145.2688 218.4884 14.08902114950270
Epoch (UTC): 25 February 2020 10:47:52
Eccentricity: 0.0547118
inclination: 28.7875°
perigee height: 467 km
apogee height: 1259 km
right ascension of ascending node: 99.6380°
argument of perigee: 145.2688°
revolutions per day: 14.08902114
mean anomaly at epoch: 218.4884°
orbit number at epoch: 95027

The dashed part of the orbit path shows where the satellite is in the earth's shadow,  

DLR